Weather in Sason

Turkey     38°20′21″N   41°24′16″E
temp.,
°C
wind,
m/s
gust,
m/s
humid.,
%
clouds,
%
prec.,
mm/h
press.,
hPa
HPBL,
m
15 april, thu
thu1500:00+8nne22625 0.0 101910
03:00+7ne225957 0.0 101911
06:00+7nne3255100 0.0 101919
09:00+12ssw114377 0.0 1019528
12:00+14sw3243100 0.0 1018973
15:00+15ssw324096 0.0 10171284
18:00+14ssw11546 0.0 101744
21:00+10ne226021 0.1 101811
16 april, fri
fri1600:00+10ne22583 0.0 101810
03:00+9nne22590 0.0 101710
06:00+9ne32630 0.0 101815
09:00+14s11493 0.0 1018704
12:00+17sw32415 0.0 10181535
15:00+18sw32385 0.0 10171751
18:00+16sw11495 0.0 101719
21:00+13nne2250100 0.0 101911
17 april, sat
sat1700:00+13ne3252100 0.0 101815
03:00+12nne3352100 0.0 101820
06:00+11nne325220 0.0 101813
09:00+17sw114154 0.0 1019533
12:00+19sw33395 0.0 10181307
15:00+20sw333773 0.0 10161524
18:00+18sw225280 0.0 101743
21:00+15nne2252100 0.0 101811
18 april, sun
sun1800:00+14nne225224 0.0 101812
03:00+13n225395 0.0 101811
06:00+13ne22547 0.0 101812
09:00+19sw114122 0.0 1017553
12:00+21wsw2239100 0.0 10161028
15:00+22w5640100 0.0 10161541
18:00+20wsw115665 0.0 101514
21:00+16e116339 0.0 101711
19 april, mon
mon1900:00+15ne2261100 0.0 101711
03:00+15nne225965 0.0 101711
06:00+14nne22595 0.0 101613
09:00+19ssw1148100 0.0 1017488
12:00+22sw2342100 0.0 1015872
15:00+22sw3344100 0.0 1015843
18:00+20s1163100 0.0 101511
21:00+18ene3357100 0.0 101431